[[{"header":{"parameterUnit":"m.s-1","parameterCategory":1,"la1":30.2991,"la2":30.254,"lo1":-89.0895,"lo2":-89.0444,"dy":0.0017,"dx":0.0017,"nx":28,"ny":28,"refTime":"2025-09-03T09:00:00:Z","depth":0,"parameterNumber":2,"parameterNumberName":"U-component_of_WINDS"},"data":[0,0,0,0,0,0,0,0,0,0,0,0,0,0,0,0,0,0,0,0,0,0,0,0,0,0,0,0,0,0,0,0,0,0,0,0,0,0,0,0,0,0,0,0,0,0,0,0,0,0,0,0,0,0,0,0,0,0,-0.1431,-0.1431,0,-0.1387,-0.1386,-0.1385,-0.1363,-0.1363,-0.1363,-0.1363,-0.1317,-0.1316,-0.1315,0,0,0,0,0,0,0,0,0,0,0,0,0,-0.1499,-0.1498,-0.1431,-0.1431,-0.143,-0.1387,-0.1386,-0.1385,-0.1363,-0.1363,-0.1363,-0.1363,-0.1318,-0.1316,-0.1315,0,0,0,0,0,0,0,0,0,0,0,0,0,-0.1464,-0.1498,-0.1431,-0.1414,-0.1412,-0.1387,-0.1386,-0.1385,-0.1363,-0.1363,-0.1363,-0.1363,-0.1318,-0.1316,-0.1315,-0.1304,0,0,-0.1309,-0.1308,0,0,0,0,0,0,0,0,-0.1466,-0.1461,-0.1417,-0.1415,-0.1413,-0.138,-0.1393,-0.1358,-0.1363,-0.1382,-0.1363,-0.1363,-0.1338,-0.1335,-0.1327,-0.1302,-0.13,-0.1309,-0.1308,-0.1307,-0.1307,0,0,0,0,0,0,0,-0.1468,-0.1463,-0.1414,-0.1416,-0.1414,-0.1409,-0.1404,-0.1386,-0.1361,-0.138,-0.1378,-0.1373,-0.1337,-0.1328,-0.1325,-0.1299,-0.1309,-0.1307,-0.1306,-0.1306,-0.1265,-0.1265,0,0,0,0,0,0,-0.1473,-0.1465,-0.1415,-0.1412,-0.144,-0.1408,-0.1402,-0.1391,-0.1361,-0.1356,-0.1373,-0.1372,-0.1331,-0.1327,-0.1324,-0.131,-0.1307,-0.1305,-0.1304,-0.1265,-0.1265,-0.1265,0,0,0,0,0,0,-0.1475,-0.1469,-0.1417,-0.1438,-0.1431,-0.1406,-0.1394,-0.139,-0.1381,-0.1356,-0.1351,-0.1369,-0.1331,-0.1326,-0.1309,-0.1308,-0.1305,-0.1303,-0.1265,-0.1265,-0.1265,-0.1282,0,0,0,0,0,0,-0.1477,-0.147,-0.1465,-0.1438,-0.143,-0.1403,-0.1394,-0.1389,-0.1378,-0.1376,-0.135,-0.1346,-0.1331,-0.1312,-0.1308,-0.1306,-0.1302,-0.1265,-0.1265,-0.1265,-0.1282,-0.1283,-0.1284,0,0,0,0,0,-0.1479,-0.1471,-0.1465,-0.1459,-0.1423,-0.1403,-0.1398,-0.1381,-0.1378,-0.1373,-0.1357,-0.1347,-0.1309,-0.1311,-0.1305,-0.1303,-0.1265,-0.1265,-0.1265,-0.1281,-0.1283,-0.1284,0,0,0,0,0,0,-0.1497,-0.1467,-0.146,-0.1442,-0.1425,-0.1399,-0.1392,-0.1383,-0.1366,-0.1365,-0.1345,-0.1339,-0.1324,-0.1312,-0.1314,-0.1292,-0.1286,-0.1285,-0.13,-0.1301,-0.1302,-0.1306,-0.13,0,0,0,0,0,-0.15,-0.1485,-0.1459,-0.1446,-0.1438,-0.1417,-0.1407,-0.1396,-0.1377,-0.137,-0.1353,-0.1335,-0.132,-0.131,-0.1294,-0.128,-0.1275,-0.1276,-0.1277,-0.1278,-0.1277,-0.1271,-0.1271,-0.1265,-0.1265,-0.1265,0,0,-0.1503,-0.1485,-0.1477,-0.145,-0.1435,-0.1421,-0.1411,-0.1396,-0.1386,-0.1368,-0.1351,-0.1338,-0.1318,-0.1303,-0.1295,-0.1292,-0.1278,-0.1278,-0.1279,-0.1278,-0.1271,-0.1271,-0.1272,-0.1265,-0.1265,-0.1265,0,0,-0.1503,-0.1487,-0.1476,-0.1462,-0.144,-0.1427,-0.1424,-0.1399,-0.139,-0.1373,-0.136,-0.1348,-0.1321,-0.1307,-0.1297,-0.1295,-0.1285,-0.129,-0.1296,-0.1289,-0.129,-0.129,-0.129,-0.1291,-0.129,-0.129,-0.129,0,-0.1511,-0.1489,-0.1471,-0.1458,-0.1447,-0.143,-0.1419,-0.1406,-0.1381,-0.1374,-0.1371,-0.1338,-0.1323,-0.1306,-0.1305,-0.1297,-0.1294,-0.1293,-0.1291,-0.1291,-0.1291,-0.1291,-0.1291,-0.129,-0.129,-0.129,-0.129,0,-0.15,-0.1485,-0.1478,-0.1455,-0.1443,-0.1431,-0.1412,-0.1403,-0.1393,-0.138,-0.1364,-0.1345,-0.1326,-0.1321,-0.1311,-0.1303,-0.1302,-0.1295,-0.1289,-0.1293,-0.1293,-0.1293,-0.1292,-0.1291,-0.1291,-0.1291,0,0,-0.1508,-0.1477,-0.1474,-0.1464,-0.1441,-0.1429,-0.1417,-0.1399,-0.1392,-0.1375,-0.1365,-0.1344,-0.1338,-0.1327,-0.1315,-0.1309,-0.1311,-0.1304,-0.1303,-0.1306,-0.1302,-0.1307,-0.1308,-0.1304,-0.1304,-0.1304,-0.1304,0,-0.1505,-0.1482,-0.1467,-0.1451,-0.1438,-0.1423,-0.1413,-0.1397,-0.1385,-0.1373,-0.136,-0.1346,-0.1339,-0.1332,-0.1326,-0.1312,-0.1309,-0.1311,-0.1295,-0.1295,-0.1301,-0.1307,-0.1312,-0.1313,-0.1304,-0.1304,-0.1304,0,-0.1498,-0.1483,-0.1466,-0.1445,-0.1439,-0.143,-0.1413,-0.1401,-0.1385,-0.1376,-0.1365,-0.1353,-0.1341,-0.1336,-0.132,-0.1322,-0.1314,-0.1307,-0.1306,-0.1304,-0.13,-0.1306,-0.1313,-0.1313,-0.1303,-0.1303,-0.1303,0,-0.1508,-0.1483,-0.1469,-0.1461,-0.1436,-0.1431,-0.142,-0.1403,-0.1394,-0.138,-0.1374,-0.1358,-0.1349,-0.1338,-0.1323,-0.1321,-0.1308,-0.1302,-0.1302,-0.1302,-0.13,-0.13,-0.1306,-0.1295,-0.1295,-0.1295,-0.1295,0,-0.1506,-0.1496,-0.1474,-0.1465,-0.1454,-0.1438,-0.1427,-0.1416,-0.1401,-0.1391,-0.1378,-0.1369,-0.1349,-0.1338,-0.1327,-0.1316,-0.1312,-0.1305,-0.1302,-0.1307,-0.1307,-0.1301,-0.1301,-0.1295,-0.1295,-0.1295,-0.1295,0,-0.1514,-0.1498,-0.1483,-0.1462,-0.1456,-0.1449,-0.1431,-0.1423,-0.1411,-0.1399,-0.1395,-0.1377,-0.1363,-0.1347,-0.1328,-0.1321,-0.1311,-0.1306,-0.1317,-0.1315,-0.1316,-0.1316,-0.1318,-0.1318,-0.1306,-0.1307,-0.1307,0,-0.1514,-0.1506,-0.1485,-0.1477,-0.1467,-0.1455,-0.1446,-0.143,-0.1421,-0.1403,-0.1398,-0.1383,-0.1371,-0.135,-0.1335,-0.1321,-0.1317,-0.1319,-0.1314,-0.132,-0.1318,-0.1318,-0.1318,-0.132,-0.132,-0.132,-0.132,0,-0.1516,-0.151,-0.1497,-0.1482,-0.1472,-0.1459,-0.1446,-0.1441,-0.1423,-0.1414,-0.14,-0.1391,-0.1373,-0.1359,-0.1344,-0.1333,-0.1324,-0.1322,-0.1321,-0.1325,-0.1332,-0.1329,-0.132,-0.1322,-0.1321,-0.1321,-0.1321,-0.1321,-0.1521,-0.1514,-0.1498,-0.1485,-0.1474,-0.1463,-0.1455,-0.1443,-0.1431,-0.1415,-0.1406,-0.1393,-0.1379,-0.1357,-0.1348,-0.1338,-0.1334,-0.1333,-0.1333,-0.1333,-0.1335,-0.1334,-0.1335,-0.1335,-0.1335,-0.1335,-0.1335,0,-0.1523,-0.1513,-0.1501,-0.1484,-0.1474,-0.1467,-0.1453,-0.1445,-0.1434,-0.1421,-0.141,-0.1395,-0.1382,-0.1367,-0.1354,-0.1349,-0.1344,-0.1346,-0.1346,-0.1344,-0.1338,-0.134,-0.135,-0.135,-0.135,-0.135,-0.135,-0.135,-0.1523,-0.1511,-0.1503,-0.1487,-0.1476,-0.1464,-0.1457,-0.1447,-0.1436,-0.1421,-0.1411,-0.1401,-0.1388,-0.1373,-0.1362,-0.1358,-0.1354,-0.1357,-0.1352,-0.1346,-0.1345,-0.1343,-0.1345,-0.1356,-0.1356,-0.1359,-0.1359,-0.1359]},{"header":{"parameterUnit":"m.s-1","parameterCategory":1,"la1":30.2991,"la2":30.254,"lo1":-89.0895,"lo2":-89.0444,"dy":0.0017,"dx":0.0017,"nx":28,"ny":28,"refTime":"2025-09-03T09:00:00:Z","depth":0,"parameterNumber":3,"parameterNumberName":"V-component_of_WINDS"},"data":[0,0,0,0,0,0,0,0,0,0,0,0,0,0,0,0,0,0,0,0,0,0,0,0,0,0,0,0,0,0,0,0,0,0,0,0,0,0,0,0,0,0,0,0,0,0,0,0,0,0,0,0,0,0,0,0,0,0,4.7593,4.7593,0,4.7531,4.753,4.753,4.7448,4.7447,4.7445,4.7444,4.7379,4.7379,4.7378,0,0,0,0,0,0,0,0,0,0,0,0,0,4.7642,4.7641,4.7594,4.7593,4.7592,4.7531,4.753,4.7529,4.7448,4.7447,4.7445,4.7443,4.7379,4.7379,4.7378,0,0,0,0,0,0,0,0,0,0,0,0,0,4.7604,4.7641,4.7594,4.7544,4.7539,4.7531,4.753,4.7529,4.7449,4.7447,4.7445,4.7443,4.738,4.7379,4.7378,4.7414,0,0,4.7376,4.7376,0,0,0,0,0,0,0,0,4.7606,4.7603,4.7552,4.7548,4.7542,4.7495,4.7523,4.7491,4.7449,4.7483,4.7444,4.7442,4.7419,4.7415,4.7408,4.7411,4.7408,4.7376,4.7376,4.7375,4.7375,0,0,0,0,0,0,0,4.7609,4.7605,4.7569,4.7552,4.7545,4.7525,4.7517,4.7517,4.7463,4.748,4.7474,4.7468,4.7416,4.7409,4.7406,4.7407,4.7376,4.7375,4.7375,4.7375,4.7435,4.7437,0,0,0,0,0,0,4.7619,4.7607,4.7571,4.7567,4.757,4.7526,4.7517,4.7512,4.7463,4.7454,4.7469,4.7464,4.7411,4.7407,4.7403,4.744,4.7375,4.7375,4.7374,4.7433,4.7435,4.7437,0,0,0,0,0,0,4.7621,4.7617,4.7573,4.7586,4.7578,4.7527,4.7522,4.7512,4.7505,4.7455,4.7445,4.7472,4.7409,4.7404,4.7412,4.7437,4.7374,4.7374,4.743,4.7433,4.7436,4.7516,0,0,0,0,0,0,4.7622,4.7618,4.7631,4.7586,4.7578,4.7583,4.7524,4.7512,4.7504,4.7496,4.7455,4.7446,4.7407,4.7413,4.7411,4.7435,4.7373,4.7428,4.7432,4.7435,4.7511,4.7521,4.753,0,0,0,0,0,4.7624,4.7656,4.7632,4.7628,4.7594,4.7585,4.758,4.7535,4.7506,4.7519,4.7487,4.7447,4.7435,4.7415,4.7411,4.7436,4.7426,4.743,4.7435,4.7506,4.7519,4.753,0,0,0,0,0,0,4.7704,4.7649,4.7622,4.764,4.7618,4.7571,4.7585,4.7551,4.7536,4.7529,4.7475,4.7466,4.748,4.7458,4.7437,4.7467,4.7424,4.7429,4.748,4.7492,4.7501,4.7505,4.7372,0,0,0,0,0,4.7724,4.7722,4.7674,4.7695,4.7685,4.7638,4.7632,4.76,4.7574,4.7564,4.7533,4.7509,4.75,4.7495,4.7484,4.7508,4.7497,4.7523,4.7533,4.7541,4.7545,4.7554,4.7565,4.7452,4.7452,4.7452,0,0,4.7765,4.7735,4.7737,4.771,4.7689,4.7687,4.763,4.7631,4.7629,4.7564,4.7568,4.7545,4.7515,4.7531,4.7536,4.7513,4.7574,4.7547,4.7554,4.7553,4.756,4.7571,4.7581,4.7455,4.7455,4.7454,0,0,4.7838,4.7816,4.783,4.781,4.7779,4.7747,4.7751,4.7709,4.7691,4.7695,4.7646,4.7643,4.7628,4.7609,4.7597,4.7663,4.7625,4.7661,4.7712,4.7722,4.7731,4.7738,4.776,4.7769,4.7665,4.7665,4.7666,0,4.7893,4.7888,4.7841,4.7845,4.7834,4.7776,4.779,4.7773,4.774,4.7733,4.7709,4.7689,4.7665,4.7674,4.7691,4.7684,4.7685,4.7665,4.7733,4.774,4.7747,4.7767,4.7776,4.767,4.7669,4.7669,4.7668,0,4.7956,4.7954,4.7969,4.7939,4.793,4.7939,4.7893,4.789,4.7858,4.7829,4.7834,4.7803,4.7784,4.7784,4.7754,4.7789,4.7776,4.7744,4.7699,4.7763,4.7781,4.7788,4.7676,4.7675,4.7673,4.7672,0,0,4.8077,4.802,4.8026,4.8011,4.7973,4.797,4.7977,4.7958,4.7956,4.7935,4.7938,4.7928,4.7897,4.7884,4.7851,4.786,4.7913,4.7826,4.7824,4.7842,4.7948,4.7972,4.7982,4.7888,4.789,4.7891,4.795,0,4.8141,4.8148,4.8106,4.8124,4.8121,4.8066,4.8071,4.8048,4.8021,4.8014,4.7985,4.7977,4.7938,4.793,4.7937,4.7905,4.7933,4.79,4.7889,4.7889,4.7897,4.7991,4.8016,4.8074,4.7957,4.7958,4.7959,0,4.8217,4.82,4.8218,4.8178,4.8175,4.8181,4.816,4.8155,4.8127,4.8107,4.8093,4.8055,4.8057,4.8017,4.8019,4.7997,4.7991,4.7974,4.7976,4.7971,4.7927,4.7988,4.8091,4.8099,4.797,4.7969,4.7968,0,4.8301,4.8283,4.8291,4.8281,4.8235,4.824,4.8221,4.8191,4.8183,4.8165,4.8159,4.8142,4.8132,4.812,4.8078,4.8053,4.8084,4.8041,4.8066,4.8067,4.8074,4.8074,4.8176,4.8073,4.8073,4.8073,4.8072,0,4.8376,4.8389,4.8328,4.8333,4.8346,4.8297,4.8311,4.8287,4.8261,4.8259,4.8212,4.8211,4.8157,4.815,4.8118,4.8124,4.812,4.8103,4.8094,4.8106,4.8108,4.81,4.8094,4.8075,4.8074,4.8074,4.8074,0,4.8471,4.8432,4.8436,4.8393,4.8382,4.8393,4.8356,4.8358,4.8329,4.8327,4.8324,4.8278,4.8268,4.8225,4.8205,4.8183,4.8199,4.8182,4.8208,4.8202,4.823,4.8227,4.8328,4.8339,4.8231,4.8232,4.8233,0,4.8521,4.8529,4.8487,4.8483,4.8466,4.846,4.8451,4.8405,4.8397,4.8367,4.8372,4.8359,4.8345,4.8331,4.8295,4.8279,4.826,4.8297,4.8257,4.8269,4.8259,4.8258,4.8258,4.8305,4.8306,4.8308,4.8309,0,4.8613,4.8593,4.8582,4.8565,4.8556,4.854,4.8521,4.852,4.8468,4.8462,4.8451,4.8441,4.842,4.8406,4.8385,4.8364,4.8327,4.8322,4.8326,4.8338,4.8352,4.8343,4.823,4.8319,4.8318,4.8317,4.8317,4.8316,4.8686,4.869,4.8661,4.8651,4.8632,4.8615,4.8615,4.8586,4.8576,4.8556,4.8529,4.8521,4.8493,4.846,4.8442,4.8435,4.8415,4.8422,4.8424,4.8426,4.8431,4.8355,4.8431,4.8431,4.843,4.843,4.843,0,4.8774,4.8753,4.8744,4.8719,4.8711,4.8678,4.8655,4.865,4.8644,4.8621,4.8609,4.8596,4.8583,4.8546,4.8529,4.853,4.8513,4.8527,4.8525,4.8521,4.8451,4.8448,4.8541,4.8541,4.8541,4.8541,4.8541,4.8541,4.8819,4.8824,4.8801,4.8797,4.8775,4.8768,4.8757,4.8742,4.8723,4.8711,4.87,4.8676,4.8647,4.8628,4.8613,4.8603,4.8598,4.8618,4.8602,4.8537,4.8526,4.8516,4.8513,4.8618,4.8618,4.8671,4.8672,4.8672]}]]